Miscellaneous Local Product
Issued by NWS North Platte, NE

Home | Current Version | Previous Version | Text Only | Print | Product List | Glossary On
Versions: 1 2 3 4 5 6 7 8 9 10 11 12 13 14 15 16 17 18 19 20 21 22 23 24 25 26 27 28 29 30 31 32 33 34 35 36 37 38 39 40 41 42 43 44 45 46 47 48 49 50
000
AXUS43 KLBF 180610
MISLBF


WESTERN AND NORTH CENTRAL NEBRASKA HOURLY WEATHER ROUNDUP
NATIONAL WEATHER SERVICE NORTH PLATTE NE
100 AM CDT THU SEP 18 2014

***STATIONS NOT REPORTING VARIABLES SUCH AS SKY/WEATHER OR
PRESSURE ARE PROVIDED BY THE NEBRASKA DEPARTMENT OF
ROADS...RAWS...AND APRS NETWORKS...AND ARE NOT UNDER
NATIONAL WEATHER SERVICE QUALITY CONTROL***

...OBSERVATIONS IN AND NEAR THE EASTERN PANHANDLE OF NEBRASKA...

CITY           SKY/WX    TMP DP  RH WIND       PRES   REMARKS
PINE RIDGE     CLEAR     60  54  80 E6        29.96S
CHADRON        CLEAR     59  51  75 CALM      29.94S
ALLIANCE       CLEAR     64  57  78 S13       29.97S
SIDNEY         CLEAR     58  53  84 SE7       30.02S
WHITECLAY        N/A     62  52  69 SE14        N/A
RUSHVILLE        N/A     59  52  76 E12         N/A
CRESCENT LAKE    N/A     63  57  82 SE6         N/A
LISCO            N/A     68  59  73 E6          N/A
BIG SPRINGS      N/A     64  60  87 CALM        N/A
$$

...OBSERVATIONS IN NORTH CENTRAL NEBRASKA...

CITY           SKY/WX    TMP DP  RH WIND       PRES   REMARKS
VALENTINE      CLEAR     60  55  83 E9        30.00R
THEDFORD       CLEAR     61  59  94 CALM      29.99R
AINSWORTH      CLEAR     58  55  88 E5        29.99S
O`NEILL        PTCLDY    60  57  89 E5        29.99R
ORD            PTCLDY    59  57  93 CALM      29.96R
BROKEN BOW     CLEAR     56  54  93 S5        29.97R FOG
SPRINGVIEW       N/A     58  54  88 CALM        N/A
ROSE             N/A     64  63  97 NE6         N/A
NEWPORT          N/A     58  56  94 E5          N/A
COMSTOCK         N/A     67  65  94 SE6         N/A
CHAMBERS         N/A     59  55  88 CALM        N/A
$$

...OBSERVATIONS IN SOUTHWEST NEBRASKA AND FAR NORTHEAST COLORADO...

CITY           SKY/WX    TMP DP  RH WIND       PRES   REMARKS
WRAY           FAIR      64  60  85 E6        29.98S
HOLYOKE        FAIR      64  61  88 SE7       29.98F
IMPERIAL       MOCLDY    66  60  81 SE10      29.98R
OGALLALA       PTCLDY    67  62  85 SE6       29.98S
NORTH PLATTE   PTCLDY    61  59  93 E7        29.97R
MCCOOK         PTCLDY    63  60  90 NE5       29.96S
LEXINGTON      CLEAR     62  60  92 CALM      29.97R
PAXTON           N/A     69  63  81 SE8         N/A
SUTHERLAND       N/A     64  60  87 E5          N/A
BRADY            N/A     60  57  90 CALM        N/A
GOTHENBURG       N/A     61  56  84 E3          N/A
CALLAWAY         N/A     62  60  93 SE8         N/A
$$

...SOME WEATHER OBSERVATIONS FROM AROUND THE REGION...

CITY           SKY/WX    TMP DP  RH WIND       PRES   REMARKS
DENVER         PTCLDY    64  43  46 SW9       30.07F
LARAMIE        CLEAR     49  38  65 SW3       30.20S
CHEYENNE       CLEAR     56  41  57 W7        30.12S
SCOTTSBLUFF    CLEAR     58  50  75 E3        29.98R
RAPID CITY     PTCLDY    59  52  77 S6        29.98F
PIERRE         CLEAR     54  46  74 E7        29.94F
WINNER         FAIR      62  56  80 E8        29.96F
SIOUX FALLS    PTCLDY    59  54  83 E5        29.98F
OMAHA          PTCLDY    65  58  78 SE8       29.99R
GRAND ISLAND   CLEAR     62  59  90 E6        29.96F
KANSAS CITY    MOCLDY    65  63  93 E8        29.96F
WICHITA        MOCLDY    76  67  73 E9        29.86F
HAYS           PTCLDY    68  63  83 E13       29.90R
LIBERAL        PTCLDY    70  57  64 SW12      29.95S
GOODLAND       PTCLDY    59  58  96 S7        29.98S
$$



USA.gov is the U.S. government's official web portal to all federal, state and local government web resources and services.